Location: Waco, TX
(31.5480°N, 97.1670°W)
Time: 22:14:15
(UTC-05:00)

ISS - Pass Details

Date: 20 May 2017
Orbit: 402 x 409 km, 51.6° (Epoch: 23 May)

Event Time Altitude Azimuth Distance (km) Brightness Sun altitude
Rises 06:12:07 0° 331° (NNW) 2,319 0.0 -4.1°
Reaches altitude 10° 06:14:45 10° 353° (N) 1,455 -0.7 -3.6°
Maximum altitude 06:16:56 17° 35° (NE) 1,124 -0.5 -3.2°
Drops below altitude 10° 06:19:06 10° 77° (ENE) 1,449 0.7 -2.8°
Sets 06:21:42 0° 100° (E) 2,304 1.0 -2.3°
